Ortonville, MN

3:10 AM CST on December 10, 2016 (GMT -0600)
Ortonville Municipal-Martinson

Weather History for KVVV - December, 2013

Change the Weather History Date:

Thursday, December 5, 2013

  Actual Average (KAQP) Record (KAQP)
Temperature  
Mean Temperature 0 °F -  
Max Temperature 6 °F 29 °F 44 °F (2006)
Min Temperature -5 °F 14 °F -16 °F (2005)
Degree Days  
Heating Degree Days 64    
Moisture  
Dew Point -6 °F    
Average Humidity 69    
Maximum Humidity 78    
Minimum Humidity 61    
Precipitation  
Precipitation 0.00 in - - ()
Sea Level Pressure  
Sea Level Pressure 30.11 in    
Wind  
Wind Speed 17 mph (WNW)    
Max Wind Speed 22 mph    
Max Gust Speed 30 mph    
Visibility 10 miles    
Events      
Averages and records for this station are not official NWS values.
T = Trace of Precipitation, MM = Missing Value Source: NWS Daily Summary

Daily Weather History Graph

Daily Weather History Graph

Search for Another Location

Airport or City:

Trip Planner

Search our weather history database for the weather conditions in past years. The results will help you decide how hot, cold, wet, or windy it might be!

Date:

Astronomy

Dec. 05, 2013 Rise Set
Actual Time 7:49 AM CST 4:43 PM CST
Civil Twilight 7:15 AM CST 5:16 PM CST
Nautical Twilight 6:38 AM CST 5:54 PM CST
Astronomical Twilight 6:03 AM CST 6:29 PM CST
Moon 10:06 AM CST (12/5) 8:10 PM CST (12/5)
Length of Visible Light 10h 01m
Length of Day
8h 53m
Waxing Crescent, 11% of the Moon is Illuminated
Dec 5
Waxing Crescent
Dec 9
First Quarter
Dec 17
Full
Dec 25
Last Quarter
Jan 1
New

Hourly Weather History & Observations

Time (CST) Temp. Windchill Dew Point Humidity Pressure Visibility Wind Dir Wind Speed Gust Speed Precip Events Conditions
12:14 AM 6.8 °F -12.4 °F -0.4 °F 72% 29.83 in 7.0 mi WNW 18.4 mph 28.8 mph N/A   Unknown
12:34 AM 6.8 °F -12.4 °F -0.4 °F 72% 29.85 in 10.0 mi WNW 18.4 mph 24.2 mph N/A   Unknown
12:54 AM 6.8 °F -12.9 °F -0.4 °F 72% 29.86 in 10.0 mi WNW 19.6 mph 26.5 mph N/A   Unknown
1:14 AM 6.8 °F -12.4 °F -0.4 °F 72% 29.88 in 10.0 mi WNW 18.4 mph 26.5 mph N/A   Unknown
1:34 AM 6.8 °F -13.8 °F -0.4 °F 72% 29.88 in 10.0 mi WNW 21.9 mph 26.5 mph N/A   Unknown
1:54 AM 5.0 °F -14.2 °F -2.2 °F 72% 29.89 in 10.0 mi WNW 17.3 mph 24.2 mph N/A   Unknown
2:14 AM 5.0 °F -16.2 °F -2.2 °F 72% 29.89 in 10.0 mi WNW 21.9 mph 28.8 mph N/A   Unknown
2:34 AM 5.0 °F -15.2 °F -2.2 °F 72% 29.91 in 10.0 mi WNW 19.6 mph 27.6 mph N/A   Unknown
2:53 AM 5.0 °F -14.2 °F -2.2 °F 72% 29.92 in 10.0 mi WNW 17.3 mph 26.5 mph N/A   Unknown
3:14 AM 3.2 °F -18.6 °F -2.2 °F 78% 29.93 in 10.0 mi WNW 21.9 mph 26.5 mph N/A   Unknown
3:34 AM 3.2 °F -18.1 °F -4.0 °F 72% 29.93 in 10.0 mi WNW 20.7 mph 26.5 mph N/A   Unknown
3:53 AM 3.2 °F -18.1 °F -4.0 °F 72% 29.94 in 10.0 mi WNW 20.7 mph 29.9 mph N/A   Unknown
4:14 AM 3.2 °F -15.9 °F -4.0 °F 72% 29.96 in 10.0 mi WNW 16.1 mph 21.9 mph N/A   Unknown
4:34 AM 1.4 °F -18.2 °F -5.8 °F 72% 29.97 in 10.0 mi WNW 16.1 mph 24.2 mph N/A   Unknown
4:53 AM 1.4 °F -19.9 °F -5.8 °F 72% 29.98 in 10.0 mi WNW 19.6 mph 24.2 mph N/A   Unknown
5:14 AM 1.4 °F -18.8 °F -5.8 °F 72% 29.98 in 7.0 mi WNW 17.3 mph 27.6 mph N/A   Clear
5:34 AM 1.4 °F -18.2 °F -5.8 °F 72% 29.98 in 10.0 mi WNW 16.1 mph 23.0 mph N/A   Clear
5:53 AM 1.4 °F -19.9 °F -5.8 °F 72% 29.98 in 10.0 mi WNW 19.6 mph 26.5 mph N/A   Clear
6:14 AM 1.4 °F -18.2 °F -5.8 °F 72% 29.99 in 10.0 mi WNW 16.1 mph 20.7 mph N/A   Clear
6:34 AM 1.4 °F -18.8 °F -5.8 °F 72% 30.00 in 10.0 mi WNW 17.3 mph 25.3 mph N/A   Clear
6:53 AM 1.4 °F -18.8 °F -5.8 °F 72% 30.01 in 10.0 mi WNW 17.3 mph 23.0 mph N/A   Clear
7:14 AM 1.4 °F -18.8 °F -5.8 °F 72% 30.02 in 10.0 mi WNW 17.3 mph 21.9 mph N/A   Clear
7:34 AM 1.4 °F -18.8 °F -5.8 °F 72% 30.03 in 10.0 mi WNW 17.3 mph 24.2 mph N/A   Unknown
7:53 AM 1.4 °F -18.8 °F -7.6 °F 66% 30.04 in 10.0 mi WNW 17.3 mph 23.0 mph N/A   Clear
8:13 AM -0.4 °F -19.2 °F -7.6 °F 72% 30.05 in 10.0 mi WNW 13.8 mph 23.0 mph N/A   Clear
8:34 AM 1.4 °F -18.8 °F -7.6 °F 66% 30.06 in 10.0 mi West 17.3 mph 21.9 mph N/A   Clear
8:54 AM 1.4 °F -19.4 °F -7.6 °F 66% 30.06 in 10.0 mi WNW 18.4 mph - N/A   Clear
9:14 AM 1.4 °F -19.4 °F -7.6 °F 66% 30.08 in 10.0 mi WNW 18.4 mph 25.3 mph N/A   Clear
9:34 AM 1.4 °F -18.8 °F -5.8 °F 72% 30.09 in 10.0 mi WNW 17.3 mph 23.0 mph N/A   Clear
9:54 AM 1.4 °F -20.5 °F -5.8 °F 72% 30.10 in 10.0 mi WNW 20.7 mph 25.3 mph N/A   Clear
10:13 AM 3.2 °F -16.5 °F -5.8 °F 66% 30.11 in 10.0 mi WNW 17.3 mph 27.6 mph N/A   Clear
10:34 AM 3.2 °F -16.5 °F -5.8 °F 66% 30.13 in 10.0 mi WNW 17.3 mph 26.5 mph N/A   Clear
10:54 AM 3.2 °F -17.6 °F -5.8 °F 66% 30.14 in 10.0 mi WNW 19.6 mph 25.3 mph N/A   Clear
11:14 AM 3.2 °F -17.1 °F -5.8 °F 66% 30.15 in 10.0 mi WNW 18.4 mph 28.8 mph N/A   Clear
11:34 AM 3.2 °F -18.1 °F -5.8 °F 66% 30.14 in 10.0 mi WNW 20.7 mph 25.3 mph N/A   Clear
11:54 AM 3.2 °F -17.6 °F -5.8 °F 66% 30.14 in 7.0 mi WNW 19.6 mph 26.5 mph N/A   Clear
12:14 PM 3.2 °F -17.6 °F -5.8 °F 66% 30.15 in 10.0 mi West 19.6 mph 24.2 mph N/A   Clear
12:33 PM 3.2 °F -17.1 °F -4.0 °F 72% 30.15 in 7.0 mi West 18.4 mph - N/A   Clear
12:54 PM 5.0 °F -14.2 °F -4.0 °F 66% 30.15 in 10.0 mi WNW 17.3 mph 26.5 mph N/A   Clear
1:13 PM 5.0 °F -13.6 °F -4.0 °F 66% 30.15 in 10.0 mi West 16.1 mph 24.2 mph N/A   Clear
1:34 PM 5.0 °F -15.2 °F -4.0 °F 66% 30.14 in 10.0 mi West 19.6 mph 26.5 mph N/A   Clear
1:54 PM 5.0 °F -14.2 °F -4.0 °F 66% 30.14 in 10.0 mi West 17.3 mph 25.3 mph N/A   Clear
2:13 PM 5.0 °F -14.2 °F -5.8 °F 61% 30.14 in 10.0 mi West 17.3 mph 26.5 mph N/A   Clear
2:34 PM 5.0 °F -13.6 °F -5.8 °F 61% 30.16 in 10.0 mi West 16.1 mph 26.5 mph N/A   Clear
2:54 PM 3.2 °F -16.5 °F -5.8 °F 66% 30.15 in 7.0 mi WNW 17.3 mph 27.6 mph N/A   Clear
3:13 PM 3.2 °F -15.9 °F -5.8 °F 66% 30.16 in 10.0 mi WNW 16.1 mph 24.2 mph N/A   Clear
3:34 PM 3.2 °F -15.3 °F -5.8 °F 66% 30.17 in 10.0 mi West 15.0 mph 23.0 mph N/A   Clear
3:54 PM 3.2 °F -13.1 °F -5.8 °F 66% 30.17 in 10.0 mi WNW 11.5 mph 21.9 mph N/A   Clear
4:13 PM 3.2 °F -13.9 °F -5.8 °F 66% 30.18 in 10.0 mi West 12.7 mph 21.9 mph N/A   Clear
4:34 PM 1.4 °F -18.2 °F -5.8 °F 72% 30.18 in 10.0 mi West 16.1 mph - N/A   Unknown
4:54 PM 1.4 °F -18.2 °F -7.6 °F 66% 30.18 in 10.0 mi WNW 16.1 mph 20.7 mph N/A   Unknown
5:13 PM 1.4 °F -16.9 °F -7.6 °F 66% 30.20 in 10.0 mi WNW 13.8 mph - N/A   Unknown
5:34 PM -0.4 °F -18.4 °F -7.6 °F 72% 30.20 in 10.0 mi WNW 12.7 mph - N/A   Clear
5:54 PM -0.4 °F -16.7 °F -7.6 °F 72% 30.22 in 10.0 mi West 10.4 mph - N/A   Unknown
6:14 PM -0.4 °F -17.6 °F -9.4 °F 66% 30.22 in 10.0 mi West 11.5 mph 16.1 mph N/A   Clear
6:33 PM -0.4 °F -16.7 °F -7.6 °F 72% 30.23 in 10.0 mi West 10.4 mph - N/A   Clear
6:54 PM -0.4 °F -17.6 °F -9.4 °F 66% 30.25 in 10.0 mi WNW 11.5 mph 18.4 mph N/A   Clear
7:14 PM -0.4 °F -19.2 °F -9.4 °F 66% 30.25 in 10.0 mi WNW 13.8 mph 20.7 mph N/A   Clear
7:33 PM -0.4 °F -15.7 °F -9.4 °F 66% 30.27 in 10.0 mi WNW 9.2 mph - N/A   Clear
7:54 PM -2.2 °F -18.9 °F -9.4 °F 71% 30.28 in 10.0 mi WNW 10.4 mph - N/A   Clear
8:14 PM -2.2 °F -18.0 °F -9.4 °F 71% 30.29 in 10.0 mi WNW 9.2 mph - N/A   Clear
8:33 PM -2.2 °F -18.0 °F -9.4 °F 71% 30.30 in 10.0 mi West 9.2 mph - N/A   Clear
8:54 PM -2.2 °F -18.9 °F -9.4 °F 71% 30.30 in 10.0 mi WNW 10.4 mph - N/A   Clear
9:14 PM -2.2 °F -19.9 °F -9.4 °F 71% 30.31 in 10.0 mi WNW 11.5 mph - N/A   Clear
9:33 PM -2.2 °F -20.7 °F -11.2 °F 66% 30.31 in 10.0 mi WNW 12.7 mph 17.3 mph N/A   Clear
9:54 PM -4.0 °F -22.1 °F -11.2 °F 71% 30.31 in 10.0 mi West 11.5 mph 16.1 mph N/A   Unknown
10:13 PM -4.0 °F -21.2 °F -11.2 °F 71% 30.32 in 10.0 mi West 10.4 mph - N/A   Unknown
10:34 PM -4.0 °F -23.0 °F -11.2 °F 71% 30.32 in 10.0 mi WNW 12.7 mph 17.3 mph N/A   Clear
10:54 PM -4.0 °F -23.0 °F -11.2 °F 71% 30.33 in 10.0 mi WNW 12.7 mph 17.3 mph N/A   Clear
11:13 PM -4.0 °F -22.1 °F -11.2 °F 71% 30.33 in 10.0 mi WNW 11.5 mph 16.1 mph N/A   Clear
11:34 PM -5.8 °F -22.4 °F -13.0 °F 71% 30.34 in 10.0 mi WNW 9.2 mph - N/A   Clear
11:54 PM -5.8 °F -22.4 °F -13.0 °F 71% 30.34 in 10.0 mi West 9.2 mph 16.1 mph N/A   Clear